Tracking 18851 objects as of 25-Nov-2017
HD Live streaming from Space Station
objects crossing your sky now

FENGYUN 1C DEB

Track FENGYUN 1C DEB now!
10-day predictions


NORAD ID: 30057
Int'l Code: 1999-025PJ
Perigee: 848.5 km
Apogee: 1,301.2 km
Inclination: 98.9 °
Period: 106.6 minutes
Semi major axis: 7445 km
RCS: 0.0284 m2 (small)
Launch date: May 10, 1999
Source: People's Republic of China (PRC)
Launch site: Taiyaun Space Center, China (TSC)

Note: This is SATELLITE DEBRIS
aabbcc
Your satellite tracking list
Your tracking list is empty




NASA's NSSDC Master Catalog

Two Line Element Set (TLE):
1 30057U 99025PJ  17328.83884137 +.00000518 +00000-0 +63876-3 0  9990
2 30057 098.8656 296.8085 0303947 127.9368 293.5747 13.51238736534805
Source of the keplerian elements: AFSPC